sat.trackr.live / text

‹ back to catalog

STARLINK-31085

NORAD 58609 · 2023-200W

PAYLOAD ACTIVE UNKNOWN

§ Identity

Operator
Country
US
Launch date
2023-12-19
Launch site
AFETR
Launch vehicle
Mass (kg)
RCS (m²)

Purposes: comms

External: N2YO · Heavens-Above · Gunter

§ Orbital elements

Epoch: 2026-05-25T03:41:03.126624Z

Period
94.27 min
Inclination
43.0021°
Eccentricity
0.0000963
Mean motion
15.27574848 rev/d
Perigee alt
482.4 km
Apogee alt
483.7 km
Semi-major
6,861.2 km
B*
2.8681e-5
RAAN
97.1325°
Arg perigee
258.3639°
Mean anomaly
101.7104°
Rev number
13,530

§ Raw data

STARLINK-310851 58609U 23200W   26145.15350841  .00000527  00000+0  28681-4 0  99922 58609  43.0021  97.1325 0000963 258.3639 101.7104 15.27574848135308

JSON: /api/v1/satellites/58609 · /tle

For live sub-satellite position, see the globe view (requires WebGL).

§ Visibility from observer

Set your observer location to see the next 7 days of passes ≥ 10°. The values pass through the URL so the page stays shareable.

No JS? Fill the form by hand. The geolocation button needs JavaScript.